Regional Weather Roundup
Issued by NWS

Home | Current Version | Previous Version | Graphics & Text | Print | Product List | Glossary On
Versions: 1 2 3 4 5 6 7 8 9 10 11 12 13 14 15 16 17 18 19 20 21 22 23 24 25 26 27 28 29 30 31 32 33 34 35 36 37 38 39 40 41 42 43 44 45 46 47 48
000
ASUS45 KBOI 272110
RWRID
WEATHER ROUNDUP FOR IDAHO
NATIONAL WEATHER SERVICE BOISE ID
200 PM MST TUE JAN 27 2015

NOTE: "FAIR" INDICATES FEW OR NO CLOUDS BELOW 12000 FEET
WITH NO SIGNIFICANT WEATHER AND/OR OBSTRUCTIONS TO VISIBILITY

IDZ012-014-272200-
SOUTHWEST IDAHO


CITY           SKY/WX    TMP DP  RH WIND       PRES   REMARKS
BOISE          CLOUDY    37  34  87 W5        30.10S FOG     WCI  34
CALDWELL       CLOUDY    36  30  80 CALM      30.13F
MOUNTAIN HOME  FOG       36  34  93 W3        30.09S VSB 1/2
$$

IDZ016-017-272200-
SOUTHCENTRAL IDAHO


CITY           SKY/WX    TMP DP  RH WIND       PRES   REMARKS
BURLEY         LGT RAIN  49  38  65 S7        30.08F
JEROME         CLOUDY    50  36  58 S6        30.09F
TWIN FALLS     LGT RAIN  48  40  73 S20       30.06F
$$

IDZ019>023-272200-
SOUTHEAST IDAHO


CITY           SKY/WX    TMP DP  RH WIND       PRES   REMARKS
IDAHO FALLS    CLOUDY    37  32  82 NW3       30.13F
POCATELLO      CLOUDY    48  38  68 S23G30    30.14R
REXBURG        PTSUNNY   52  28  39 CALM      30.13F
$$

IDZ006-010-011-018-031-032-272200-
CENTRAL IDAHO MOUNTAINS


CITY           SKY/WX    TMP DP  RH WIND       PRES   REMARKS
MCCALL         PTSUNNY   36  29  75 SE3       30.03F
HAILEY         PTSUNNY   41  32  70 SE6       30.13F
STANLEY          N/A     26  20  77 CALM      30.08F
SALMON         CLOUDY   N/A N/A N/A CALM      30.10F
CHALLIS        CLOUDY    37  29  72 N3        30.07F
$$

IDZ002-004-006-007-026-272200-
NORTHERN IDAHO


CITY           SKY/WX    TMP DP  RH WIND       PRES   REMARKS
LEWISTON       MOSUNNY   50  39  66 VRB3      30.01S
LOWELL           N/A     46  36  68 CALM      30.06F
COEUR D`ALENE  MOSUNNY   39  37  93 NE5       29.97F
MULLAN PASS    PTSUNNY   44  26  49 VRB5      29.99F
$$


USA.gov is the U.S. government's official web portal to all federal, state and local government web resources and services.